Morris, MN

6:24 AM CDT on May 27, 2017 (GMT -0500)
Morris Municipal

Weather History for KMOX - February, 2013

Change the Weather History Date:

Monday, February 18, 2013

  Actual Average Record
Temperature  
Mean Temperature 16 °F -  
Max Temperature 33 °F 25 °F 53 °F (2017)
Min Temperature -2 °F 10 °F -14 °F (2006)
Degree Days  
Heating Degree Days 50    
Moisture  
Dew Point 9 °F    
Average Humidity 83    
Maximum Humidity 100    
Minimum Humidity 72    
Precipitation  
Precipitation 0.00 in - - ()
Sea Level Pressure  
Sea Level Pressure 29.73 in    
Wind  
Wind Speed 19 mph (NW)    
Max Wind Speed 41 mph    
Max Gust Speed 48 mph    
Visibility 4 miles    
Events Snow    
Averages and records for this station are not official NWS values.
T = Trace of Precipitation, MM = Missing Value Source: NWS Daily Summary

Daily Weather History Graph

Daily Weather History Graph

Search for Another Location

Airport or City:

Trip Planner

Search our weather history database for the weather conditions in past years. The results will help you decide how hot, cold, wet, or windy it might be!

Date:

Astronomy

Feb. 18, 2013 Rise Set
Actual Time 7:20 AM CST 5:55 PM CST
Civil Twilight 6:50 AM CST 6:25 PM CST
Nautical Twilight 6:15 AM CST 7:00 PM CST
Astronomical Twilight 5:41 AM CST 7:34 PM CST
Moon 11:33 AM CST (2/18) 2:09 AM CST (2/18)
Length of Visible Light 11h 35m
Length of Day
10h 35m
First Quarter, 58% of the Moon is Illuminated
Feb 18
First Quarter
Feb 25
Full
Mar 4
Last Quarter
Mar 11
New
Mar 19
First Quarter

Hourly Weather History & Observations

Time (CST) Temp. Windchill Dew Point Humidity Pressure Visibility Wind Dir Wind Speed Gust Speed Precip Events Conditions
12:12 AM 24.8 °F 14.6 °F 21.2 °F 86% 29.49 in 10.0 mi SSE 10.4 mph - N/A   Scattered Clouds
12:32 AM 24.8 °F 19.1 °F 21.2 °F 86% 29.50 in 10.0 mi South 4.6 mph - N/A   Mostly Cloudy
12:52 AM 24.8 °F 20.5 °F 23.0 °F 93% 29.48 in 7.0 mi SSE 3.5 mph - N/A   Scattered Clouds
1:12 AM 24.8 °F 20.5 °F 21.2 °F 86% 29.49 in 7.0 mi SW 3.5 mph - N/A   Clear
1:32 AM 23.0 °F - 21.2 °F 93% 29.49 in 7.0 mi Calm Calm - N/A   Clear
1:52 AM 24.8 °F - 23.0 °F 93% 29.49 in 5.0 mi Calm Calm - N/A   Scattered Clouds
2:12 AM 23.0 °F - 21.2 °F 93% 29.49 in 4.0 mi Calm Calm - N/A   Scattered Clouds
2:32 AM 21.2 °F 14.9 °F 19.4 °F 93% 29.49 in 4.0 mi West 4.6 mph - N/A   Scattered Clouds
2:52 AM 21.2 °F 16.4 °F 21.2 °F 100% 29.48 in 1.5 mi West 3.5 mph - N/A   Mist
3:12 AM 21.2 °F 12.6 °F 19.4 °F 93% 29.49 in 1.0 mi West 6.9 mph - N/A   Overcast
3:32 AM 21.2 °F 12.6 °F 21.2 °F 100% 29.49 in 3.0 mi West 6.9 mph - N/A   Overcast
3:52 AM 24.8 °F 19.1 °F 23.0 °F 93% 29.50 in 5.0 mi WSW 4.6 mph - N/A   Overcast
4:12 AM 26.6 °F 21.2 °F 26.6 °F 100% 29.50 in 7.0 mi West 4.6 mph - N/A   Overcast
4:32 AM 28.4 °F 19.7 °F 26.6 °F 93% 29.51 in 10.0 mi West 9.2 mph - N/A   Overcast
4:52 AM 30.2 °F 22.6 °F 28.4 °F 93% 29.51 in 10.0 mi WSW 8.1 mph - N/A   Overcast
5:12 AM 30.2 °F 22.6 °F 28.4 °F 93% 29.51 in 10.0 mi WSW 8.1 mph - N/A   Overcast
5:32 AM 32.0 °F 23.0 °F 30.2 °F 93% 29.51 in 10.0 mi West 11.5 mph - N/A   Overcast
5:52 AM 33.8 °F 22.8 °F 32.0 °F 93% 29.51 in 5.0 mi WNW 18.4 mph - N/A   Overcast
6:12 AM 28.4 °F 12.3 °F 26.6 °F 93% 29.53 in 1.5 mi NW 32.2 mph 41.4 mph N/A   Overcast
6:32 AM 26.6 °F 10.0 °F 23.0 °F 86% 29.55 in 2.0 mi NW 31.1 mph 40.3 mph N/A   Overcast
6:52 AM 24.8 °F 8.4 °F 23.0 °F 93% 29.56 in 3.0 mi NW 27.6 mph 32.2 mph N/A   Overcast
7:12 AM 24.8 °F 9.0 °F 21.2 °F 86% 29.57 in 10.0 mi NW 25.3 mph - N/A   Overcast
7:32 AM 24.8 °F 8.1 °F 19.4 °F 80% 29.58 in 10.0 mi NW 28.8 mph 35.7 mph N/A   Overcast
8:32 AM 19.4 °F 1.8 °F 15.8 °F 86% 29.63 in 5.0 mi NNW 25.3 mph 36.8 mph N/A   Overcast
8:52 AM 19.4 °F -1.3 °F 15.8 °F 86% 29.64 in 5.0 mi NW 38.0 mph - N/A   Overcast
9:12 AM 17.6 °F -4.5 °F 12.2 °F 79% 29.65 in 4.0 mi NW 41.4 mph 48.3 mph N/A   Overcast
9:32 AM 17.6 °F -2.5 °F 12.2 °F 79% 29.67 in 1.8 mi NNW 32.2 mph 43.7 mph N/A Snow Light Snow
9:52 AM 15.8 °F -4.4 °F 10.4 °F 79% 29.68 in 4.0 mi NNW 29.9 mph 43.7 mph N/A Snow Light Snow
10:12 AM 15.8 °F -5.0 °F 10.4 °F 79% 29.70 in 1.0 mi NNW 32.2 mph 40.3 mph N/A Snow Light Snow
10:32 AM 14.0 °F -8.8 °F 8.6 °F 79% 29.72 in 3.0 mi NW 38.0 mph 44.9 mph N/A Snow Light Snow
10:52 AM 14.0 °F -8.8 °F 8.6 °F 79% 29.72 in 1.2 mi NW 38.0 mph 42.6 mph N/A Snow Light Snow
11:12 AM 12.2 °F -10.2 °F 6.8 °F 79% 29.73 in 4.0 mi NNW 33.4 mph 42.6 mph N/A   Haze
11:32 AM 12.2 °F -10.5 °F 6.8 °F 79% 29.74 in 2.5 mi NW 34.5 mph 46.0 mph N/A   Haze
11:52 AM 12.2 °F -9.9 °F 6.8 °F 79% 29.74 in 3.0 mi NNW 32.2 mph 43.7 mph N/A Snow Light Snow
12:12 PM 12.2 °F -11.6 °F 6.8 °F 79% 29.75 in 2.5 mi NW 39.1 mph 47.2 mph N/A Snow Light Snow
12:32 PM 12.2 °F -10.2 °F 6.8 °F 79% 29.75 in 2.0 mi NW 33.4 mph 44.9 mph N/A Snow Light Snow
12:52 PM 10.4 °F -13.2 °F 6.8 °F 85% 29.75 in 0.8 mi NW 35.7 mph 43.7 mph N/A Snow Light Snow
1:12 PM 10.4 °F -12.7 °F 6.8 °F 85% 29.76 in 0.8 mi NW 33.4 mph 42.6 mph N/A Snow Light Snow
1:32 PM 12.2 °F -10.5 °F 5.0 °F 73% 29.77 in 2.5 mi NW 34.5 mph 46.0 mph N/A   Haze
1:52 PM 10.4 °F -14.1 °F 5.0 °F 79% 29.78 in 2.5 mi NW 39.1 mph 44.9 mph N/A   Haze
2:12 PM 10.4 °F -12.0 °F 5.0 °F 79% 29.78 in 0.8 mi NNW 31.1 mph 39.1 mph N/A   Haze
2:32 PM 10.4 °F -12.3 °F 3.2 °F 73% 29.80 in 1.0 mi NNW 32.2 mph 46.0 mph N/A   Haze
2:52 PM 8.6 °F -14.8 °F 3.2 °F 79% 29.80 in 1.2 mi NNW 32.2 mph 42.6 mph N/A   Haze
3:12 PM 8.6 °F -14.8 °F 1.4 °F 73% 29.81 in 2.0 mi NNW 32.2 mph 41.4 mph N/A   Haze
3:32 PM 6.8 °F -16.9 °F -0.4 °F 72% 29.82 in 2.0 mi NNW 31.1 mph 44.9 mph N/A   Haze
3:52 PM 6.8 °F -17.6 °F 1.4 °F 79% 29.84 in 2.5 mi NNW 33.4 mph 40.3 mph N/A   Haze
4:12 PM 5.0 °F -20.1 °F -0.4 °F 78% 29.84 in 4.0 mi NNW 33.4 mph 40.3 mph N/A   Haze
4:32 PM 5.0 °F -19.7 °F -0.4 °F 78% 29.85 in 4.0 mi NNW 32.2 mph 38.0 mph N/A   Haze
4:52 PM 5.0 °F -19.0 °F -0.4 °F 78% 29.85 in 4.0 mi NNW 29.9 mph 39.1 mph N/A   Haze
5:12 PM 3.2 °F -22.2 °F -0.4 °F 85% 29.87 in 2.0 mi NNW 32.2 mph 43.7 mph N/A   Haze
5:32 PM 3.2 °F -21.5 °F -2.2 °F 78% 29.88 in 2.0 mi NNW 29.9 mph 36.8 mph N/A   Haze
5:52 PM 3.2 °F -21.1 °F -2.2 °F 78% 29.89 in 1.0 mi NNW 28.8 mph 43.7 mph N/A Snow Light Snow
6:12 PM 1.4 °F -24.3 °F -2.2 °F 85% 29.90 in 1.5 mi NNW 31.1 mph 38.0 mph N/A Snow Light Snow
6:32 PM 1.4 °F -24.6 °F -2.2 °F 85% 29.91 in 1.0 mi NNW 32.2 mph 39.1 mph N/A Snow Light Snow
6:52 PM 1.4 °F -24.6 °F -2.2 °F 85% 29.92 in 1.5 mi NNW 32.2 mph 40.3 mph N/A Snow Light Snow
7:12 PM 1.4 °F -24.3 °F -4.0 °F 78% 29.93 in 1.2 mi NNW 31.1 mph 42.6 mph N/A Snow Light Snow
7:32 PM 1.4 °F -23.9 °F -4.0 °F 78% 29.92 in 4.0 mi NNW 29.9 mph 35.7 mph N/A   Haze
7:52 PM 1.4 °F -23.9 °F -5.8 °F 72% 29.93 in 2.0 mi NNW 29.9 mph 44.9 mph N/A Snow Light Snow
8:12 PM -0.4 °F -26.0 °F -5.8 °F 78% 29.94 in 2.0 mi NNW 28.8 mph 43.7 mph N/A   Haze
8:32 PM -0.4 °F -26.4 °F -5.8 °F 78% 29.94 in 4.0 mi NNW 29.9 mph 40.3 mph N/A   Haze
8:52 PM -0.4 °F -25.2 °F -5.8 °F 78% 29.95 in 5.0 mi NNW 26.5 mph 34.5 mph N/A   Haze
9:12 PM -0.4 °F -27.5 °F -7.6 °F 72% 29.95 in 3.0 mi NNW 33.4 mph 40.3 mph N/A   Haze
9:32 PM -2.2 °F -27.6 °F -7.6 °F 78% 29.96 in 3.0 mi NNW 26.5 mph 35.7 mph N/A   Haze
9:52 PM -2.2 °F -28.0 °F -7.6 °F 78% 29.97 in 3.0 mi NNW 27.6 mph 39.1 mph N/A   Haze
10:12 PM -2.2 °F -28.0 °F -7.6 °F 78% 29.97 in 3.0 mi NNW 27.6 mph 35.7 mph N/A   Haze
10:32 PM -2.2 °F -28.8 °F -7.6 °F 78% 29.97 in 3.0 mi NW 29.9 mph 39.1 mph N/A   Haze
10:52 PM -2.2 °F -28.0 °F -7.6 °F 78% 29.98 in 2.5 mi NNW 27.6 mph 36.8 mph N/A   Haze
11:12 PM -2.2 °F -28.4 °F -5.8 °F 85% 29.98 in 3.0 mi NNW 28.8 mph 35.7 mph N/A   Overcast
11:32 PM -0.4 °F -26.0 °F -5.8 °F 78% 29.99 in 2.5 mi NNW 28.8 mph 34.5 mph N/A   Haze
11:52 PM -0.4 °F -26.0 °F -5.8 °F 78% 30.00 in 2.5 mi NNW 28.8 mph 42.6 mph N/A   Haze